Location: Saint Louis
(38.6272°N, 90.1978°W)
Time: 13:48:32
(UTC-05:00)

ISS - Pass Details

Date: 28 May 2013
Orbit: 401 x 404 km, 51.6° (Epoch: 30 July)

Event Time Altitude Azimuth Distance (km) Brightness Sun altitude
Rises 02:58:17 0° 317° (NW) 2,380 0.8 -23.6°
Reaches altitude 10° 03:00:57 10° 339° (NNW) 1,495 0.0 -23.3°
Maximum altitude 03:03:14 17° 22° (NNE) 1,126 -0.2 -23.1°
Drops below altitude 10° 03:05:30 10° 66° (ENE) 1,467 0.3 -22.9°
Sets 03:08:04 0° 87° (E) 2,315 1.0 -22.6°
